Location: Fazenda Monte Alegre
(4.8500°S, 38.0333°W)
Time: 15:51:51
(UTC+00:00)

CZ-4C R/B - Pass Details

Date: 24 September 2020
Orbit: 626 x 1376 km, 63.4° (Epoch: 24 October)

Event Time Altitude Azimuth Distance (km) Brightness Sun altitude
Rises 22:17:04 0° 225° (SW) 2,958 5.7 -28.1°
Reaches altitude 10° 22:19:43 10° 239° (WSW) 2,010 4.9 -28.8°
Maximum altitude 22:23:18 24° 293° (WNW) 1,302 3.7 -29.7°
Enters shadow 22:25:32 17° 333° (NNW) 1,612 3.9 -30.2°
